Powrót do katalogu

ALSAT 1B

AktywnyNaukaSSO
NORAD 41785·PAYLOAD·🇩🇿 Algeria

Wystrzelony Sep 26, 2016 z Satish Dhawan Space Centre

Loading…

Następne Przeloty (najbliższe 24 godziny)

TLE

ŚwieżeSource: Space-Track

Epoka: Sep 14, 2026, 14:38 UTC

1 41785U 16059C   26257.61013744  .00000307  00000-0  56073-4 0  9999
2 41785  97.7783 262.5317 0008177 305.8440  54.2008 14.72331996533736

Śledź ALSAT 1B w czasie rzeczywistym z AllMySat

Download on the App Store